Погода в Мозыре

Погода в Мозыре : погода сейчас, прогноз погоды и архив. Всё, что Вы хотите узнать о погоде в Мозыре!

Хотите узнать прогноз погоды в Мозыре? Тогда Вам сюда: Погода в Мозыре

Поиск расширенной информации на нашем сайте:

Другие новости

Новости СМИ2

Главная страница сайта

Новости сайта

03.07.2017

Напоминаем, что на нашем специализированном сайте Метеоцентр.Азия вы можете получить высокодетализированные автоматические прогнозы погоды по пунктам России, СНГ и мира в авиационном формате (включающие направление и скорость ветра, видимость, явления погоды, количество и форму облачности, нижнюю и верхнюю границу облачности).


Погода в Мозыре - сегодня

Время (UTC), дата Ветер
(°,м/с) 
Видим.   Явления Облачность Т
(°С)
Тd
(°С)
f(%) Тe
(°С)
Pmin
(гПа)
dP
(гПа)
Po
(мм)
O2
(г/м3)
Тmin Tmax R s Состояние
почвы
15 17.02.18 200 (Ю) 15000 м    8/8 1000 м 
[Sc]
+1.7 -1.8 78 +2  1020.6  -1.1  748  300           
18 17.02.18 250 (З) 10 км  в посл. час снег  10/5 1000 м средняя 
[Sc|Ac As]
+0.8 -2 82 +1  1021.1  0.4  748  301    +2.9  0.0  10   
21 17.02.18 230 (ЮЗ) 8000 м  в посл. час ливневой снег  10/4 600 м кучево-дожд., средняя 
[Cb cap|Ac As]
+0 -1.5 90 +1  1020.6  -0.5  748  301           
00 18.02.18 тихо ()   7000 м  дымка{ливн. осадки}  10/0 средняя 
[Ac As]
-0.3 -1.3 93 -0  1020.4  -0.2  747  302           
03 18.02.18 тихо ()   7000 м  в посл. час ливневой снег  10/4 600 м кучево-дожд., средняя 
[Cb cap|Ac As]
-0.3 -1.2 94 -0  1020.2  -0.2  747  302      0.0  10   
06 18.02.18 300 (СЗ) 8000 м  дымка{ливн. осадки}  9/8 600 м средняя 
[Sc|Ac As]
-0.5 -1.6 92 1020.6  0.3  748  302  -0.7    0.0  10  равномерный
мокрый или
старый снег
100% 
09 18.02.18 290 (З) 4000 м  слаб. ливневой снег  10/6 600 м кучево-дожд., средняя 
[Cb cap|Ac As]
-0.8 -3.4 83 1021  0.4  748  303           
12 18.02.18 290 (З) 17000 м  {ливн. осадки}  10/6 1000 м средняя 
[Sc|Ac As]
-1.1 -5 75 -1  1021.2  0.2  748  303           
15 18.02.18 340 (С) 12000 м    9/0 средняя 
[Ac As]
-2.1 -7.5 66 -2  1022  0.7  749  305      0.1     
18 18.02.18 280 (З) 10 км  в посл. час снег  10/0 средняя 
[Ac As]
-3 -5.5 83 -3  1022.8  0.7  749  306    -0.3  0.2  10   
21 18.02.18 280 (З) 8000 м  слаб. снег  10/0 средняя 
[Ac As]
-3.4 -5.2 87 -3  1023.3  0.4  749  306           
00 19.02.18 310 (СЗ) 4000 м  слаб. ливневой снег  10/6 600 м кучево-дожд., средняя 
[Cb cap|Ac As]
-4.4 -6 89 -4  1024  0.6  750  308           
03 19.02.18 290 (З) 10 км  {ливн. осадки}  10/0 средняя 
[Ac As]
-4.6 -6.4 87 -4  1023.8  -0.2  750  308      0.6  11   
06 19.02.18 270 (З) 4000 м  слаб. ливневой снег  8/5 600 м кучево-дожд., средняя 
[Cb cap|Ac und]
-5 -7.2 85 -5  1024.5  0.6  750  309  -5    0.6  11  равномерный
сухой снег
100% 
09 19.02.18 280 (З) 17000 м  в посл. час ливневой снег  10/5 600 м кучево-дожд., средняя 
[Cb cap|Ac As]
-3.6 -5.8 85 -5  1024.4  0.1  750  307           
12 19.02.18 270 (З) 20000 м  {ливн. осадки}  10/0 средняя 
[Ac As]
-1.6 -5.8 73 -3  1023.7  -0.5  750  305           
15 19.02.18 280 (З) 15000 м  в посл. час ливневой снег  9/3 600 м кучево-дожд., средняя 
[Cb cap|Ac und]
-1.4 -4.2 81 -1  1023.6  -0.1  750  304      0.0     
18 19.02.18 280 (З) 10 км  {ливн. осадки}  9/0 средняя 
[Ac und]
-1.8 -4.4 82 -1  1024.3  0.6  750  305    -1  0.2  12   
21 19.02.18 360 (С) 10 км  {ливн. осадки}  9/0 средняя 
[Ac und]
-2.5 -5 83 -2  1024.6  0.3  750  306           
00 20.02.18 тихо ()   10 км  {ливн. осадки, снег}  10/0 средняя 
[Ac As]
-3.7 -7.2 77 -4  1025.4  0.6  751  307           
03 20.02.18 тихо ()   9000 м  слаб. снег  10/4 300 м средняя 
[Frnb|As op]
-3.8 -6.7 80 -4  1025.2  -0.2  751  307      0.0  12   
06 20.02.18 тихо ()   4000 м  слаб. ливневой снег  10/8 600 м кучево-дожд., средняя 
[Cb cap|Ac As]
-3.5 -6.3 81 -4  1025.4  0.2  751  307  -3.9    0.0  12  равномерный
сухой снег
100% 
09 20.02.18 160 (Ю) 20000 м  в посл. час ливневой снег  8/8 1000 м 
[Sc]
-2.1 -6.3 73 -2  1025.4  0.2  751  306           
12 20.02.18 040 (СВ) 20000 м  {ливн. осадки}  9/8 1000 м средняя 
[Sc|Ac und]
-0.8 -5 73 1024.8  -0.5  751  304           
15 20.02.18 360 (С) 15000 м    8/8 1000 м средняя 
[Sc|Ac und]
-0.6 -4.9 73 1024.5  -0.3  750  304      0.0     
Время (UTC), дата Ветер
(°,м/с) 
Видим.   Явления Облачность Т
(°С)
Тd
(°С)
f(%) Тe
(°С)
Pmin
(гПа)
dP
(гПа)
Po
(мм)
O2
(г/м3)
Тmin Tmax R s Состояние
почвы

Для получения пояснительной информации подведите курсор к названию столбца.

ПОГОДА в Мозыре - архив

Всё, что Вы хотите узнать о погоде в Мозыре - удобно и подробно!

Выберите нужную дату (начиная с 1 января 2015* года) и нажмите кнопку "Найти".
Будут отображены архивные сводки погоды по пункту Мозырь, начиная с указанной даты.


Отображать данные в формате CSV (для использования в таблицах Excel)


Внимание! Наш архив погоды предназначен исключительно для личного некоммерческого использования в познавательных целях. Если Вам необходимы официальные справки о состоянии погоды (для производственных, юридических, коммерческих и т.п. целей), обращайтесь в органы Росгидромета.

*Примечание: данная дата относится к архиву по метеостанциям СССР (Россия, СНГ, Балтия).
Архив по метеостанциям Зарубежной Европы и Азии (кроме Китая) хранится 10 дней, по другим регионам земного шара (Китай, Африка, Америка, Австралия, Океания) - 1 день.

Мозырь - район местоположения метеостанции


Название, широта, долгота, высота метеостанции:
Мозырь 51.9°ш. 29.2°д. 170 м над ур. моря [Беларусь]

Дополнительная информация

В oтличие oт бoльшинства пoгoдных сайтoв мы публикуем пoдрoбную метеoинфoрмацию в детальнoм прoфессиoнальнoм фoрмате.

Характеристики температуры и влажнoсти вoздуха измеряются на высoте 2 м в тени вдали oт зданий и деревьев.
Скoрoсть ветра измеряется на высoте 10 м (на урoвне рoста челoвека скoрoсть ветра ниже в 1.5-2 раза). Если метеoстанция нахoдится в гoрoде или в лесу, тo скoрoсть ветра занижена на 2-4 м/с пo сравнению с oткрытым местoм. Скoрoсть ветра над акватoриями крупных рек и oзёр, а также на вершинах хoлмoв на 2-5 м/с выше, чем в oбычных услoвиях.
Атмoсфернoе давление в разных тoчках местнoсти мoжет значительнo oтличаться oт давления на метеoстанции, в зависимoсти oт услoвий рельефа (при пoдъёме на 10 м давление пoнижается примернo на 1 мм рт.ст.).